متلبد بالغيوم
غالبا غائم
متلبد بالغيوم
متلبد بالغيوم
متلبد بالغيوم
متلبد بالغيوم
متلبد بالغيوم
(°C)
-1°
-1°
-1°
-1°
-1°
-1°
-2°
(°C)
-6°
-5°
-5°
-6°
-6°
-7°
-7°
شمال
شمال
شمال
NNW
شمال
شمال
شمال
(كم/سا)
11-15
8-19
9-18
10-14
13-16
16-17
16-20
(مم)
0
0
0
0
0
0
0
(%)
0
0
0
0
0
0
0

مستوى ارتفاع الشمس

/ -57.6°
sun-icon
UV 0
07:40
16:50
الربع الأول (89°)
10:42
00:18

متر ل50.1°شمال 14.27°شرق (LKPR)

الوقت الشروط درجة الحرارة/
نقطة الندى
رياح مجال رؤية حالة الطقس غيوم الضغط تغيير خام
IFR -1°C / -2°C 350º 6kt 8000m - Overcast 600ft 1021 Temporary: Visibility 5000. Mist . Overcast 400ft. LKPR 272330Z 35006KT 8000 OVC006 M01/M02 Q1021 TEMPO 5000 BR OVC004
IFR -1°C / -2°C 350º 7kt 8000m - Overcast 600ft 1021 Temporary: Visibility 5000. Mist . Overcast 400ft. LKPR 272300Z 35007KT 8000 OVC006 M01/M02 Q1021 TEMPO 5000 BR OVC004
IFR -1°C / -2°C 360º 8kt 9000m - Overcast 700ft 1021 No Significant change LKPR 272230Z 36008KT 9000 OVC007 M01/M02 Q1021 NOSIG
IFR -1°C / -2°C 360º 7kt >10km - Broken Clouds 700ft
Overcast 2800ft
1022 No Significant change LKPR 272200Z 36007KT 9999 BKN007 OVC028 M01/M02 Q1022 NOSIG
IFR -1°C / -2°C 360º 7kt >10km - Broken Clouds 700ft
Overcast 3200ft
1022 No Significant change LKPR 272130Z 36007KT 9999 BKN007 OVC032 M01/M02 Q1022 NOSIG
IFR -1°C / -2°C 10º 6kt >10km - Broken Clouds 800ft
Overcast 3100ft
1022 No Significant change LKPR 272100Z 01006KT 9999 BKN008 OVC031 M01/M02 Q1022 NOSIG
IFR -1°C / -2°C 10º 8kt >10km - Broken Clouds 700ft
Overcast 1200ft
1022 No Significant change LKPR 272030Z 01008KT 9999 BKN007 OVC012 M01/M02 Q1022 NOSIG
IFR -1°C / -2°C 360º 7kt >10km - Scattered Clouds 700ft
Overcast 900ft
1021 No Significant change LKPR 272000Z 36007KT 9999 SCT007 OVC009 M01/M02 Q1021 NOSIG
IFR -1°C / -2°C 350º 7kt >10km - Scattered Clouds 600ft
Overcast 900ft
1021 No Significant change LKPR 271930Z 35007KT 9999 SCT006 OVC009 M01/M02 Q1021 NOSIG
MVFR -1°C / -2°C 340º 7kt >10km - Scattered Clouds 600ft
Overcast 1000ft
1021 No Significant change LKPR 271900Z 34007KT 9999 SCT006 OVC010 M01/M02 Q1021 NOSIG
IFR -1°C / -2°C 340º 7kt >10km - Few Clouds 400ft
Broken Clouds 800ft
Overcast 1100ft
1021 No Significant change LKPR 271830Z 34007KT 9999 FEW004 BKN008 OVC011 M01/M02 Q1021 NOSIG
IFR -1°C / -2°C 340º 7kt >10km - Scattered Clouds 400ft
Broken Clouds 700ft
Overcast 1000ft
1020 No Significant change LKPR 271800Z 34007KT 9999 SCT004 BKN007 OVC010 M01/M02 Q1020 NOSIG
LIFR -2°C / -2°C 330º 8kt >10km - Broken Clouds 400ft
Overcast 700ft
1020 No Significant change LKPR 271730Z 33008KT 9999 BKN004 OVC007 M02/M02 Q1020 NOSIG
IFR -2°C / -2°C 340º 8kt >10km - Few Clouds 400ft
Broken Clouds 500ft
Overcast 900ft
1020 No Significant change LKPR 271700Z 34008KT 9999 FEW004 BKN005 OVC009 M02/M02 Q1020 NOSIG
LIFR -2°C / -2°C 330º 8kt 6000m Light freezing Drizzle 0.40mm precipitation Vertical Visibility of 0ft.
Broken Clouds 400ft
Overcast 600ft
1020 No Significant change LKPR 271630Z 33008KT 6000 -FZDZ SCT003 BKN004 OVC006 M02/M02 Q1020 NOSIG
IFR -2°C / -3°C 350º 9kt 8000m Light Snow Grains 1.00mm precipitation Vertical Visibility of 0ft.
Overcast 800ft
1020 No Significant change LKPR 271600Z 35009KT 8000 -SG BKN005 OVC008 M02/M03 Q1020 NOSIG
IFR -2°C / -3°C 340º 8kt >10km Light Snow Grains 1.00mm precipitation Vertical Visibility of 0ft.
Overcast 1100ft
1020 No Significant change LKPR 271530Z 34008KT 9999 -SG BKN007 OVC011 M02/M03 Q1020 NOSIG
IFR -2°C / -3°C 330º 8kt >10km - Broken Clouds 600ft
Overcast 1000ft
1020 No Significant change LKPR 271500Z 33008KT 9999 BKN006 OVC010 M02/M03 Q1020 NOSIG
IFR -2°C / -3°C 330º 8kt >10km - Broken Clouds 600ft
Overcast 1000ft
1020 No Significant change LKPR 271430Z 33008KT 9999 BKN006 OVC010 M02/M03 Q1020 NOSIG
IFR -2°C / -3°C 330º 8kt >10km - Broken Clouds 600ft
Overcast 900ft
1019 No Significant change LKPR 271400Z 33008KT 9999 BKN006 OVC009 M02/M03 Q1019 NOSIG
IFR -2°C / -2°C 330º 8kt >10km - Few Clouds 400ft
Broken Clouds 500ft
Overcast 700ft
1019 No Significant change LKPR 271330Z 33008KT 9999 FEW004 BKN005 OVC007 M02/M02 Q1019 NOSIG
IFR -2°C / -3°C 340º 7kt >10km - Scattered Clouds 400ft
Overcast 500ft
1019 No Significant change LKPR 271300Z 34007KT 9999 SCT004 OVC005 M02/M03 Q1019 NOSIG
IFR -2°C / -3°C 330º 10kt >10km - Scattered Clouds 500ft
Overcast 600ft
1019 No Significant change LKPR 271230Z 33010KT 9999 SCT005 OVC006 M02/M03 Q1019 NOSIG
IFR -2°C / -3°C 330º 9kt >10km - Scattered Clouds 500ft
Overcast 700ft
1019 No Significant change LKPR 271200Z 33009KT 9999 SCT005 OVC007 M02/M03 Q1019 NOSIG

IFR

-1°C / -2°C

[أكثر]
رياح 350º 6kt
مجال رؤية 8000m
حالة الطقس -
غيوم Overcast 600ft
الضغط 1021
تغيير Temporary: Visibility 5000. Mist . Overcast 400ft.
خام LKPR 272330Z 35006KT 8000 OVC006 M01/M02 Q1021 TEMPO 5000 BR OVC004

IFR

-1°C / -2°C

[أكثر]
رياح 350º 7kt
مجال رؤية 8000m
حالة الطقس -
غيوم Overcast 600ft
الضغط 1021
تغيير Temporary: Visibility 5000. Mist . Overcast 400ft.
خام LKPR 272300Z 35007KT 8000 OVC006 M01/M02 Q1021 TEMPO 5000 BR OVC004

IFR

-1°C / -2°C

[أكثر]
رياح 360º 8kt
مجال رؤية 9000m
حالة الطقس -
غيوم Overcast 700ft
الضغط 1021
تغيير No Significant change
خام LKPR 272230Z 36008KT 9000 OVC007 M01/M02 Q1021 NOSIG

IFR

-1°C / -2°C

[أكثر]
رياح 360º 7kt
مجال رؤية >10km
حالة الطقس -
غيوم Broken Clouds 700ft
Overcast 2800ft
الضغط 1022
تغيير No Significant change
خام LKPR 272200Z 36007KT 9999 BKN007 OVC028 M01/M02 Q1022 NOSIG

IFR

-1°C / -2°C

[أكثر]
رياح 360º 7kt
مجال رؤية >10km
حالة الطقس -
غيوم Broken Clouds 700ft
Overcast 3200ft
الضغط 1022
تغيير No Significant change
خام LKPR 272130Z 36007KT 9999 BKN007 OVC032 M01/M02 Q1022 NOSIG

IFR

-1°C / -2°C

[أكثر]
رياح 10º 6kt
مجال رؤية >10km
حالة الطقس -
غيوم Broken Clouds 800ft
Overcast 3100ft
الضغط 1022
تغيير No Significant change
خام LKPR 272100Z 01006KT 9999 BKN008 OVC031 M01/M02 Q1022 NOSIG

IFR

-1°C / -2°C

[أكثر]
رياح 10º 8kt
مجال رؤية >10km
حالة الطقس -
غيوم Broken Clouds 700ft
Overcast 1200ft
الضغط 1022
تغيير No Significant change
خام LKPR 272030Z 01008KT 9999 BKN007 OVC012 M01/M02 Q1022 NOSIG

IFR

-1°C / -2°C

[أكثر]
رياح 360º 7kt
مجال رؤية >10km
حالة الطقس -
غيوم Scattered Clouds 700ft
Overcast 900ft
الضغط 1021
تغيير No Significant change
خام LKPR 272000Z 36007KT 9999 SCT007 OVC009 M01/M02 Q1021 NOSIG

IFR

-1°C / -2°C

[أكثر]
رياح 350º 7kt
مجال رؤية >10km
حالة الطقس -
غيوم Scattered Clouds 600ft
Overcast 900ft
الضغط 1021
تغيير No Significant change
خام LKPR 271930Z 35007KT 9999 SCT006 OVC009 M01/M02 Q1021 NOSIG

MVFR

-1°C / -2°C

[أكثر]
رياح 340º 7kt
مجال رؤية >10km
حالة الطقس -
غيوم Scattered Clouds 600ft
Overcast 1000ft
الضغط 1021
تغيير No Significant change
خام LKPR 271900Z 34007KT 9999 SCT006 OVC010 M01/M02 Q1021 NOSIG

IFR

-1°C / -2°C

[أكثر]
رياح 340º 7kt
مجال رؤية >10km
حالة الطقس -
غيوم Few Clouds 400ft
Broken Clouds 800ft
Overcast 1100ft
الضغط 1021
تغيير No Significant change
خام LKPR 271830Z 34007KT 9999 FEW004 BKN008 OVC011 M01/M02 Q1021 NOSIG

IFR

-1°C / -2°C

[أكثر]
رياح 340º 7kt
مجال رؤية >10km
حالة الطقس -
غيوم Scattered Clouds 400ft
Broken Clouds 700ft
Overcast 1000ft
الضغط 1020
تغيير No Significant change
خام LKPR 271800Z 34007KT 9999 SCT004 BKN007 OVC010 M01/M02 Q1020 NOSIG

LIFR

-2°C / -2°C

[أكثر]
رياح 330º 8kt
مجال رؤية >10km
حالة الطقس -
غيوم Broken Clouds 400ft
Overcast 700ft
الضغط 1020
تغيير No Significant change
خام LKPR 271730Z 33008KT 9999 BKN004 OVC007 M02/M02 Q1020 NOSIG

IFR

-2°C / -2°C

[أكثر]
رياح 340º 8kt
مجال رؤية >10km
حالة الطقس -
غيوم Few Clouds 400ft
Broken Clouds 500ft
Overcast 900ft
الضغط 1020
تغيير No Significant change
خام LKPR 271700Z 34008KT 9999 FEW004 BKN005 OVC009 M02/M02 Q1020 NOSIG

LIFR

-2°C / -2°C

[أكثر]
رياح 330º 8kt
مجال رؤية 6000m
حالة الطقس Light freezing Drizzle 0.40mm precipitation
غيوم Vertical Visibility of 0ft.
Broken Clouds 400ft
Overcast 600ft
الضغط 1020
تغيير No Significant change
خام LKPR 271630Z 33008KT 6000 -FZDZ SCT003 BKN004 OVC006 M02/M02 Q1020 NOSIG

IFR

-2°C / -3°C

[أكثر]
رياح 350º 9kt
مجال رؤية 8000m
حالة الطقس Light Snow Grains 1.00mm precipitation
غيوم Vertical Visibility of 0ft.
Overcast 800ft
الضغط 1020
تغيير No Significant change
خام LKPR 271600Z 35009KT 8000 -SG BKN005 OVC008 M02/M03 Q1020 NOSIG

IFR

-2°C / -3°C

[أكثر]
رياح 340º 8kt
مجال رؤية >10km
حالة الطقس Light Snow Grains 1.00mm precipitation
غيوم Vertical Visibility of 0ft.
Overcast 1100ft
الضغط 1020
تغيير No Significant change
خام LKPR 271530Z 34008KT 9999 -SG BKN007 OVC011 M02/M03 Q1020 NOSIG

IFR

-2°C / -3°C

[أكثر]
رياح 330º 8kt
مجال رؤية >10km
حالة الطقس -
غيوم Broken Clouds 600ft
Overcast 1000ft
الضغط 1020
تغيير No Significant change
خام LKPR 271500Z 33008KT 9999 BKN006 OVC010 M02/M03 Q1020 NOSIG

IFR

-2°C / -3°C

[أكثر]
رياح 330º 8kt
مجال رؤية >10km
حالة الطقس -
غيوم Broken Clouds 600ft
Overcast 1000ft
الضغط 1020
تغيير No Significant change
خام LKPR 271430Z 33008KT 9999 BKN006 OVC010 M02/M03 Q1020 NOSIG

IFR

-2°C / -3°C

[أكثر]
رياح 330º 8kt
مجال رؤية >10km
حالة الطقس -
غيوم Broken Clouds 600ft
Overcast 900ft
الضغط 1019
تغيير No Significant change
خام LKPR 271400Z 33008KT 9999 BKN006 OVC009 M02/M03 Q1019 NOSIG

IFR

-2°C / -2°C

[أكثر]
رياح 330º 8kt
مجال رؤية >10km
حالة الطقس -
غيوم Few Clouds 400ft
Broken Clouds 500ft
Overcast 700ft
الضغط 1019
تغيير No Significant change
خام LKPR 271330Z 33008KT 9999 FEW004 BKN005 OVC007 M02/M02 Q1019 NOSIG

IFR

-2°C / -3°C

[أكثر]
رياح 340º 7kt
مجال رؤية >10km
حالة الطقس -
غيوم Scattered Clouds 400ft
Overcast 500ft
الضغط 1019
تغيير No Significant change
خام LKPR 271300Z 34007KT 9999 SCT004 OVC005 M02/M03 Q1019 NOSIG

IFR

-2°C / -3°C

[أكثر]
رياح 330º 10kt
مجال رؤية >10km
حالة الطقس -
غيوم Scattered Clouds 500ft
Overcast 600ft
الضغط 1019
تغيير No Significant change
خام LKPR 271230Z 33010KT 9999 SCT005 OVC006 M02/M03 Q1019 NOSIG

IFR

-2°C / -3°C

[أكثر]
رياح 330º 9kt
مجال رؤية >10km
حالة الطقس -
غيوم Scattered Clouds 500ft
Overcast 700ft
الضغط 1019
تغيير No Significant change
خام LKPR 271200Z 33009KT 9999 SCT005 OVC007 M02/M03 Q1019 NOSIG

انقر ل50.1°شمال 14.27°شرق (LKPR)

From till


From till Wind 360º 7kt. Visibility 10km or more. Overcast 1000ft.
With 30% probability, Temporarly from till Visibility 3000m. Light freezing Drizzle Mist .
Temporarly from till Wind 360º 14kt. Visibility 7000m. Light Snow . Broken Clouds 400ft.
Becoming from till Wind 360º 7kt. Visibility 10km or more. Scattered Clouds 2300ft.

خام: TAF LKPR 272300Z 2800/2906 36007KT 9999 OVC010 TEMPO 2800/2814 36014KT 7000 -SN BKN004 PROB30 TEMPO 2800/2814 3000 -FZDZ BR BECMG 2814/2816 9999 SCT023

رادار وهطول الأمطار التنبؤ الآني ل50.1°شمال 14.27°شرق

رذاذ
ضوء
معتدل
ثقيل
ثقيل جدا
وابل

مؤشر المكان يشير الى 50.1°شمال 14.27°شرق. رذاذ أو تساقط ثلوج خفيف قد يكون غير مرئي للرادار. كثافة هطول الأمطار مرمزة بالألوان وتتراوح من الأزرق الفاتح إلى البرتقالي.

صور الأقمار الصناعية الملتقطة و الأمطار حالياً ل50.1°شمال 14.27°شرق

المؤشر يدل على موقع 50.1°شمال 14.27°شرق. [أكثر]

تجمع صورة الأقمار الصناعية في الوقت الفعلي بين الضوء المرئي أثناء النهار والأشعة تحت الحمراء أثناء الليل. لا تبدو الصورة مظلمة ليلاً، لأن الأشعة تحت الحمراء يمكنها الكشف عن الاختلافات في درجة الحرارة. لسوء الحظ ، يصعب التمييز بين السحب المنخفضة والضباب ودرجات حرارة الأرض ، وبالتالي يمكن أن تكون الصور غير مرئية تقريبًا أثناء الليل. يتم تحديث صور الأقمار الصناعية Meteosat الخاصة بأوروبا في الوقت الفعلي كل 5 دقائق، بينما يتم تحديث صور GOES-16 / GOES-17 (أمريكا الشمالية والجنوبية) و Himawari (آسيا) كل 10 دقائق.

يقدر هطول الأمطار من الرادار والأقمار الصناعية. تقديرات هطول الأمطار من الأقمار الصناعية أقل دقة في الليل منها أثناء النهار. اللون البرتقالي يعبر الأماكن حيث تم الكشف عن البرق (أكثر من أوروبا).

حقوق النسخ 2023 EUMETSAT / meteoblue. بيانات البرق مقدمة من nowcast.

العودة الى الأعلى